Location: Lucerne Valley
(34.4439°N, 116.9669°E)
Time: 02:14:43
(UTC-08:00)

Tiangong 2 - Pass Details

Date: 14 October 2017
Orbit: 386 x 390 km, 42.8° (Epoch: 14 December)

Event Time Altitude Azimuth Distance (km) Brightness Sun altitude
Exits shadow 14:16:37 12° 325° (NW) 1,283 3.4 -13.3°
Maximum altitude 14:18:27 18° 5° (N) 1,028 3.2 -12.9°
Drops below altitude 10° 14:20:47 10° 51° (NE) 1,422 4.7 -12.4°
Sets 14:23:18 0° 71° (ENE) 2,278 6.4 -11.9°
